Content
SEND FEEDBACK

Daily
Averages
Monthly
Summary
United States of America

GLENROCK, WYOMING


Home > North America > United States > Wyoming
Elevation: 4989 feet     Latitude: 42 52N     Longitude: 105 53W

WEATHER
 
SELECT A DAY
Number of Records: 161,807;   Date Range: 5/28/98 - 9/20/14
 
SHARE

PRINT THIS DATA

[ ← Previous Day ]
WEATHER ALMANAC - JANUARY 31, 2013
[ Next Day → ]
[ °C ]   °F
Weather ElementAverageHighLow
Temperature21.7 °F27 °F (2:53 pm)15.8 °F (10:29 am)
Dewpoint16 °F21 °F (6:53 pm)8.6 °F (10:29 am)
Humidity78.9 %88 % (3:53 am)72 % (3:53 pm)
Barometer30.13 in30.28 in (9:53 am)29.91 in (12:31 am)
Wind Speed8.1 mph16.1 mph (7:50 am)
Weather ElementAverage
Visibility6.8 mi
Wind DirectionSSW (195 °)

Weather ElementTotal
Precipitation0.01 in
Heating Degree Days43.6 (Base 65)
Averaged from 34 records on January 31, 2013
WEATHER CONDITIONS BREAKOUT
WIND DIRECTION BREAKOUT
WEATHER BY HOUR - JANUARY 31, 2013
[ °C ]   °F
Local TimeTemperatureDewpointHumidityBarometerVisibilityWind DirectionWind SpeedGust SpeedPrecipitationEventsConditions
12:31 AM23.0 °F19.4 °F86 %29.91 in1.5 miNW (310°)10.4 mph0.00 inSnowLight Snow
12:53 AM23.0 °F19.0 °F85 %30.01 in3.0 miWNW (300°)12.7 mph0.00 inSnowLight Snow
1:02 AM23.0 °F17.6 °F80 %29.92 in5.0 miWNW (300°)11.5 mph0.00 inSnowLight Snow
1:53 AM21.9 °F17.1 °F82 %30.02 in8.0 miWNW (300°)11.5 mph0.00 inSnowLight Snow
2:53 AM23.0 °F16.0 °F74 %30.01 in10.0 miNW (320°)11.5 mph0.00 inOvercast
3:53 AM21.0 °F18.0 °F88 %30.04 in3.0 miNW (320°)9.2 mph0.00 inSnowLight Snow
4:31 AM21.2 °F17.6 °F86 %29.95 in10.0 miNW (320°)11.5 mph0.00 inOvercast
4:53 AM21.9 °F17.1 °F82 %30.06 in10.0 miNW (320°)10.4 mph0.00 inOvercast
5:53 AM21.0 °F15.1 °F78 %30.11 in10.0 miNNW (330°)15.0 mphOvercast
6:53 AM21.0 °F14.0 °F74 %30.15 in10.0 miNW (320°)15.0 mphOvercast
7:38 AM19.4 °F14.0 °F80 %30.05 in7.0 miNNW (330°)15.0 mph0.00 inSnowLight Snow
7:50 AM19.4 °F15.8 °F86 %30.05 in0.8 miNNW (330°)16.1 mph0.00 inSnowLight Snow
7:53 AM19.9 °F15.1 °F81 %30.20 in0.5 miNNW (330°)15.0 mph0.00 inSnowSnow
8:08 AM19.4 °F15.8 °F86 %30.06 in1.2 miNW (320°)13.8 mph0.00 inSnowLight Snow
8:16 AM19.4 °F14.0 °F80 %30.07 in3.0 miNW (320°)12.7 mph0.00 inSnowLight Snow
8:53 AM19.0 °F12.0 °F74 %30.22 in6.0 miNorth (10°)10.4 mph0.00 inSnowLight Snow
9:32 AM17.6 °F10.4 °F73 %30.11 in2.0 miNorth (10°)4.6 mph0.00 inSnowLight Snow
9:53 AM17.1 °F10.9 °F77 %30.28 in2.0 miNorth (10°)8.1 mph0.00 inSnowLight Snow
10:02 AM17.6 °F10.4 °F73 %30.12 in1.5 miNNE (20°)8.1 mph0.00 inSnowLight Snow
10:19 AM17.6 °F10.4 °F73 %30.11 in2.5 miNNE (20°)5.8 mph0.00 inSnowLight Snow
10:29 AM15.8 °F8.6 °F73 %30.12 in4.0 miNorth (10°)6.9 mph0.00 inSnowLight Snow
10:53 AM17.1 °F10.0 °F74 %30.27 in10.0 miNNW (340°)3.5 mph0.00 inOvercast
11:53 AM19.9 °F12.9 °F74 %30.24 in10.0 miCalm0.01 inOvercast
12:53 PM24.1 °F17.1 °F75 %30.21 in10.0 miSouth (180°)5.8 mphScattered Clouds
1:53 PM25.0 °F18.0 °F75 %30.20 in10.0 miSW (220°)4.6 mphOvercast
2:53 PM27.0 °F19.9 °F75 %30.19 in10.0 miCalmOvercast
3:53 PM27.0 °F19.0 °F72 %30.20 in10.0 miSE (140°)3.5 mphOvercast
4:53 PM27.0 °F19.9 °F75 %30.19 in10.0 miSSW (200°)3.5 mphOvercast
5:53 PM26.1 °F19.9 °F78 %30.21 in10.0 miSW (220°)5.8 mphOvercast
6:53 PM26.1 °F21.0 °F81 %30.22 in10.0 miCalmOvercast
7:53 PM25.0 °F19.9 °F81 %30.22 in10.0 miSE (140°)3.5 mphOvercast
8:53 PM25.0 °F21.0 °F85 %30.22 in10.0 miSouth (170°)3.5 mphOvercast
9:53 PM24.1 °F19.0 °F81 %30.21 in10.0 miSouth (170°)5.8 mphMostly Cloudy
11:53 PM21.0 °F17.1 °F85 %30.21 in10.0 miCalmOvercast
Hourly data recorded from KDGW, located miles away from Glenrock, Wyoming







STORIES FROM OUR PARTNERS